Retour au catalogue

COSMOS 1823 DEB

ActifLEO
NORAD 19640·DEBRIS·🇷🇺 Russia

Lancé Feb 20, 1987 depuis Plesetsk Cosmodrome

Loading…

Prochains Passages (prochaines 24 heures)

TLE

FraisSource: Space-Track

Époque: Sep 14, 2026, 07:19 UTC

1 19640U 87020CE  26257.30538086  .00000038  00000-0  51651-3 0  9994
2 19640  73.5499  15.0595 0165374  23.4818   0.5880 12.17039263603763

Suivez COSMOS 1823 DEB en temps réel avec AllMySat

Download on the App Store